BEIDOU-3 M21 (C43)

Last updated on Sat Aug 15 2026 00:03:26 GMT+0000 (Coordinated Universal Time)

1 44794U 19078B 26226.21399767 -.00000062 00000+0 00000+0 0 9992 2 44794 53.8535 297.7435 0002948 42.5988 317.4966 1.86227551 45737
UTC large
Height (km)
Speed (km/s)
/
Latitude / Longitude
Inclination (degrees)
Orbital Period (minutes)
Azimuth
Elevation
Range (km)
Doppler Factor

Next 0 passes for location: London (51.5072 / 0.1276)

No passes found over London.
BEIDOU-3 M21 (C43)